Flag for Vietnam Weather past 2 weeks in Hanoi, Vietnam

Now
77 °F

Clear.


Feels Like: 78 °F
Forecast: 70 / 89 °F
Wind: 2 mph from North

Location: Ha Noi Airport

Current Time: Sep 23, 2014 at 11:51:01 PM

Latest Report: Sep 23, 2014 at 11:30 PM


Visibility: 3 mi

Pressure: 29.86 "Hg

Humidity: 94%

Dew point: 75 °F

Location of HanoiLocation

Historic Weather in Hanoi — Graph

°F

Hanoi temperature yesterday

Maximum temperature yesterday: 90 °F (at 1:30 PM)
Minimum temperature yesterday: 73 °F (at 5:00 AM)
Average temperature yesterday: 82 °F

Past Weeks' High & Low Weather Summary

 TemperatureHumidityPressure
High93 °F (Sep 10, 12:00 PM)100% (Sep 9, 8:30 AM)29.89 "Hg (Sep 9, 8:30 AM)
Low73 °F (Sep 22, 5:00 AM)46% (Sep 23, 12:00 PM)29.12 "Hg (Sep 17, 12:30 AM)
Average84 °F86%29.69 "Hg
* Reported Sep 8 10:00 PM — Sep 23 10:30 PM, Hanoi, Weather by CustomWeather, © 2014

Note: Actual official high and low records may vary slightly from our data, if they occured in-between our weather recording intervals... More about our weather records

Advertising

Hanoi weather history for previous 24 hours

 ConditionsComfort  
Time TempWeatherWind HumidityBarometerVisibility
10:30 PM
Sep 23
77 °FFog.3 mph83%29.86 "Hg2 mi
10:00 PM79 °FClear.No wind74%29.86 "Hg4 mi
9:30 PM79 °FClear.2 mph79%29.86 "Hg3 mi
9:00 PM81 °FClear.No wind66%29.86 "Hg3 mi
8:30 PM81 °FClear.1 mph66%29.83 "Hg3 mi
8:00 PM79 °FClear.5 mph79%29.83 "Hg2 mi
7:30 PM81 °FClear.2 mph74%29.80 "Hg1 mi
7:00 PM84 °FClear.5 mph51%29.80 "Hg10 mi
6:30 PM82 °FClear.5 mph55%29.77 "Hg10 mi
6:00 PM84 °FClear.5 mph51%29.77 "Hg10 mi
5:30 PM84 °FSunny.3 mph55%29.77 "Hg10 mi
5:00 PM86 °FSunny.3 mph52%29.77 "Hg10 mi
4:30 PM86 °FPassing clouds.6 mph55%29.77 "HgN/A
4:00 PM88 °FPassing clouds.6 mph52%29.77 "HgN/A
3:30 PM88 °FPassing clouds.6 mph46%29.77 "HgN/A
3:00 PM88 °FPassing clouds.7 mph52%29.77 "HgN/A
2:30 PM88 °FPassing clouds.9 mph52%29.77 "HgN/A
2:00 PM88 °FSunny.6 mph46%29.77 "Hg10 mi
1:30 PM88 °FPassing clouds.6 mph52%29.80 "HgN/A
1:00 PM88 °FSunny.6 mph46%29.80 "Hg10 mi
12:30 PM88 °FPartly sunny.7 mph49%29.83 "HgN/A
12:00 PM88 °FPartly sunny.7 mph46%29.83 "HgN/A
11:30 AM88 °FBroken clouds.7 mph52%29.86 "HgN/A
11:00 AM86 °FBroken clouds.5 mph49%29.86 "HgN/A
10:30 AM86 °FSunny.3 mph55%29.86 "Hg10 mi
10:00 AM86 °FClear.6 mph59%29.86 "Hg5 mi
9:30 AM84 °FClear.7 mph62%29.86 "Hg4 mi
9:00 AM82 °FClear.7 mph70%29.86 "Hg4 mi
8:30 AM81 °FClear.7 mph74%29.86 "Hg3 mi
8:00 AM79 °FClear.6 mph79%29.86 "Hg4 mi
7:30 AM77 °FClear.6 mph94%29.83 "Hg3 mi
7:00 AM77 °FClear.6 mph89%29.83 "Hg3 mi
6:30 AM75 °FClear.5 mph94%29.83 "Hg3 mi
6:00 AM75 °FClear.6 mph89%29.80 "Hg4 mi
5:30 AM75 °FClear.6 mph94%29.80 "Hg3 mi
5:00 AM75 °FClear.6 mph94%29.80 "Hg3 mi
4:30 AM75 °FFog.5 mph94%29.80 "Hg3 mi
4:00 AM75 °FFog.5 mph94%29.80 "Hg1 mi
3:30 AM75 °FFog.6 mph94%29.80 "Hg3 mi
3:00 AM75 °FFog.6 mph94%29.80 "Hg3 mi
2:30 AM77 °FClear.7 mph89%29.80 "Hg3 mi
2:00 AM77 °FClear.5 mph94%29.80 "Hg3 mi
1:30 AM75 °FFog.5 mph100%29.80 "Hg2 mi
1:00 AM77 °FFog.5 mph94%29.80 "Hg2 mi
12:30 AM77 °FFog.6 mph94%29.80 "Hg2 mi
12:00 AM77 °FFog.6 mph94%29.80 "Hg2 mi
11:30 PM
Sep 22
79 °FClear.8 mph74%29.80 "Hg3 mi
11:00 PM79 °FClear.7 mph84%29.80 "Hg4 mi
Weather by CustomWeather, © 2014

See weather overviewHow to use our weather pages